Tracking 27122 objects as of 24-Mar-2023
HD Live streaming from Space Station
objects crossing your sky now

NAVSTAR 81 (USA 319)

Track NAVSTAR 81 (USA 319) now!
NAVSTAR 81 (USA 319) is classified as:


NORAD ID: 48859
Int'l Code: 2021-054A
Perigee: 20,166.8 km
Apogee: 20,212.9 km
Inclination: 55.3 °
Period: 718.0 minutes
Semi major axis: 26560 km
RCS: Unknown
Launch date: June 17, 2021
Source: United States (US)
Launch site: AIR FORCE EASTERN TEST RANGE (AFETR)
PRN: 11
Your satellite tracking list
Your tracking list is empty




NASA's NSSDC Master Catalog

Two Line Element Set (TLE):
1 48859U 21054A   23082.60439826 -.00000104  00000-0  00000-0 0  9995
2 48859  55.2966  19.8287 0008676 217.7356 304.8480  2.00558267 13053
Source of the keplerian elements: AFSPC